Location: ??????
(55.6500°N, 37.8000°E)
Time: 04:29:32
(UTC+00:00)

Envisat - Pass Details

Date: 14 April 2024
Orbit: 762 x 764 km, 98.3° (Epoch: 20 May)

Event Time Altitude Azimuth Distance (km) Brightness Sun altitude
Rises 00:59:49 0° 16° (NNE) 3,245 7.2 -11.6°
Reaches altitude 10° 01:02:09 10° 18° (NNE) 2,314 6.4 -11.3°
Maximum altitude 01:07:15 74° 104° (ESE) 801 3.2 -10.7°
Drops below altitude 10° 01:12:19 10° 190° (S) 2,296 5.1 -10.1°
Enters shadow 01:14:01 - 191° (SSW) 2,978 5.6 -9.9°
